Location: Unnamed
(48.6007°N, 2.4808°E)
Time: 10:21:48
(UTC+02:00)

CUTE 1.7 + AOD 2 - Pass Details

Date: 02 April 2023
Orbit: 582 x 600 km, 97.7° (Epoch: 29 May)

Event Time Altitude Azimuth Distance (km) Brightness Sun altitude
Rises 04:26:11 0° 28° (NNE) 2,854 ? -27.1°
Reaches altitude 10° 04:28:59 10° 47° (NE) 1,949 ? -26.8°
Maximum altitude 04:31:53 18° 91° (E) 1,499 ? -26.5°
Enters shadow 04:34:24 12° 130° (SE) 1,841 ? -26.2°
